TELSTAR 18V

Last updated on Wed May 14 2025 00:02:44 GMT+0000 (Coordinated Universal Time)

1 43611U 18069A 25133.33587212 -.00000277 00000+0 00000+0 0 9999 2 43611 0.0182 279.6016 0002194 137.0529 73.6152 1.00272860 24626
UTC large
Height (km)
Speed (km/s)
/
Latitude / Longitude
Inclination (degrees)
Orbital Period (minutes)
Azimuth
Elevation
Range (km)
Doppler Factor

Next 0 passes for location: London (51.5072 / 0.1276)

Sorry there are no passes over London.